Year,Month,Day,Hour,Minute,Value (Times are PST for temperature in C)
2018,05,14,00,00,13.30
2018,05,14,00,01,13.30
2018,05,14,00,02,13.30
2018,05,14,00,03,13.20
2018,05,14,00,04,13.20
2018,05,14,00,05,13.20
2018,05,14,00,06,13.20
2018,05,14,00,07,13.10
2018,05,14,00,08,13.10
2018,05,14,00,09,13.10
2018,05,14,00,10,13.10
2018,05,14,00,11,13.10
2018,05,14,00,12,13.10
2018,05,14,00,13,13.00
2018,05,14,00,14,13.00
2018,05,14,00,15,13.00
2018,05,14,00,16,13.00
2018,05,14,00,17,13.00
2018,05,14,00,18,12.90
2018,05,14,00,19,12.90
2018,05,14,00,20,12.90
2018,05,14,00,21,12.90
2018,05,14,00,22,12.90
2018,05,14,00,23,12.90
2018,05,14,00,24,12.90
2018,05,14,00,25,12.80
2018,05,14,00,26,12.80
2018,05,14,00,27,12.80
2018,05,14,00,28,12.80
2018,05,14,00,29,12.80
2018,05,14,00,30,12.80
2018,05,14,00,31,12.80
2018,05,14,00,32,12.70
2018,05,14,00,33,12.70
2018,05,14,00,34,12.70
2018,05,14,00,35,12.70
2018,05,14,00,36,12.70
2018,05,14,00,37,12.70
2018,05,14,00,38,12.70
2018,05,14,00,39,12.70
2018,05,14,00,40,12.60
2018,05,14,00,41,12.60
2018,05,14,00,42,12.60
2018,05,14,00,43,12.60
2018,05,14,00,44,12.60
2018,05,14,00,45,12.60
2018,05,14,00,46,12.50
2018,05,14,00,47,12.50
2018,05,14,00,48,12.50
2018,05,14,00,49,12.50
2018,05,14,00,50,12.50
2018,05,14,00,51,12.40
2018,05,14,00,52,12.40
2018,05,14,00,53,12.40
2018,05,14,00,54,12.40
2018,05,14,00,55,12.40
2018,05,14,00,56,12.40
2018,05,14,00,57,12.40
2018,05,14,00,58,12.40
2018,05,14,00,59,12.30
2018,05,14,01,00,12.30
2018,05,14,01,01,12.30
2018,05,14,01,02,12.30
2018,05,14,01,03,12.30
2018,05,14,01,04,12.30
2018,05,14,01,05,12.30
2018,05,14,01,06,12.30
2018,05,14,01,07,12.30
2018,05,14,01,08,12.30
2018,05,14,01,09,12.30
2018,05,14,01,10,12.20
2018,05,14,01,11,12.20
2018,05,14,01,12,12.20
2018,05,14,01,13,12.20
2018,05,14,01,14,12.20
2018,05,14,01,15,12.20
2018,05,14,01,16,12.20
2018,05,14,01,17,12.20
2018,05,14,01,18,12.20
2018,05,14,01,19,12.10
2018,05,14,01,20,12.10
2018,05,14,01,21,12.10
2018,05,14,01,22,12.10
2018,05,14,01,23,12.10
2018,05,14,01,24,12.10
2018,05,14,01,25,12.10
2018,05,14,01,26,12.10
2018,05,14,01,27,12.10
2018,05,14,01,28,12.00
2018,05,14,01,29,12.00
2018,05,14,01,30,12.00
2018,05,14,01,31,12.00
2018,05,14,01,32,12.00
2018,05,14,01,33,12.00
2018,05,14,01,34,11.90
2018,05,14,01,35,11.90
2018,05,14,01,36,11.90
2018,05,14,01,37,11.90
2018,05,14,01,38,11.90
2018,05,14,01,39,11.90
2018,05,14,01,40,11.90
2018,05,14,01,41,11.90
2018,05,14,01,42,11.90
2018,05,14,01,43,11.90
2018,05,14,01,44,11.80
2018,05,14,01,45,11.80
2018,05,14,01,46,11.80
2018,05,14,01,47,11.80
2018,05,14,01,48,11.80
2018,05,14,01,49,11.80
2018,05,14,01,50,11.80
2018,05,14,01,51,11.80
2018,05,14,01,52,11.80
2018,05,14,01,53,11.70
2018,05,14,01,54,11.70
2018,05,14,01,55,11.70
2018,05,14,01,56,11.70
2018,05,14,01,57,11.70
2018,05,14,01,58,11.70
2018,05,14,01,59,11.70
2018,05,14,02,00,11.70
2018,05,14,02,01,11.70
2018,05,14,02,02,11.60
2018,05,14,02,03,11.60
2018,05,14,02,04,11.60
2018,05,14,02,05,11.60
2018,05,14,02,06,11.60
2018,05,14,02,07,11.60
2018,05,14,02,08,11.60
2018,05,14,02,09,11.60
2018,05,14,02,10,11.60
2018,05,14,02,11,11.50
2018,05,14,02,12,11.50
2018,05,14,02,13,11.50
2018,05,14,02,14,11.50
2018,05,14,02,15,11.50
2018,05,14,02,16,11.40
2018,05,14,02,17,11.40
2018,05,14,02,18,11.40
2018,05,14,02,19,11.40
2018,05,14,02,20,11.40
2018,05,14,02,21,11.40
2018,05,14,02,22,11.40
2018,05,14,02,23,11.40
2018,05,14,02,24,11.40
2018,05,14,02,25,11.40
2018,05,14,02,26,11.30
2018,05,14,02,27,11.30
2018,05,14,02,28,11.30
2018,05,14,02,29,11.30
2018,05,14,02,30,11.30
2018,05,14,02,31,11.30
2018,05,14,02,32,11.30
2018,05,14,02,33,11.30
2018,05,14,02,34,11.30
2018,05,14,02,35,11.30
2018,05,14,02,36,11.30
2018,05,14,02,37,11.30
2018,05,14,02,38,11.30
2018,05,14,02,39,11.20
2018,05,14,02,40,11.20
2018,05,14,02,41,11.20
2018,05,14,02,42,11.20
2018,05,14,02,43,11.20
2018,05,14,02,44,11.20
2018,05,14,02,45,11.20
2018,05,14,02,46,11.20
2018,05,14,02,47,11.20
2018,05,14,02,48,11.20
2018,05,14,02,49,11.20
2018,05,14,02,50,11.20
2018,05,14,02,51,11.10
2018,05,14,02,52,11.10
2018,05,14,02,53,11.10
2018,05,14,02,54,11.10
2018,05,14,02,55,11.10
2018,05,14,02,56,11.10
2018,05,14,02,57,11.10
2018,05,14,02,58,11.10
2018,05,14,02,59,11.10
2018,05,14,03,00,11.10
2018,05,14,03,01,11.10
2018,05,14,03,02,11.10
2018,05,14,03,03,11.10
2018,05,14,03,04,11.10
2018,05,14,03,05,11.10
2018,05,14,03,06,11.10
2018,05,14,03,07,11.00
2018,05,14,03,08,11.00
2018,05,14,03,09,11.00
2018,05,14,03,10,11.00
2018,05,14,03,11,11.00
2018,05,14,03,12,11.00
2018,05,14,03,13,11.00
2018,05,14,03,14,11.00
2018,05,14,03,15,10.90
2018,05,14,03,16,10.90
2018,05,14,03,17,10.90
2018,05,14,03,18,10.90
2018,05,14,03,19,10.90
2018,05,14,03,20,10.90
2018,05,14,03,21,10.90
2018,05,14,03,22,10.90
2018,05,14,03,23,10.90
2018,05,14,03,24,10.90
2018,05,14,03,25,10.80
2018,05,14,03,26,10.80
2018,05,14,03,27,10.80
2018,05,14,03,28,10.80
2018,05,14,03,29,10.80
2018,05,14,03,30,10.80
2018,05,14,03,31,10.80
2018,05,14,03,32,10.80
2018,05,14,03,33,10.70
2018,05,14,03,34,10.70
2018,05,14,03,35,10.70
2018,05,14,03,36,10.70
2018,05,14,03,37,10.70
2018,05,14,03,38,10.70
2018,05,14,03,39,10.60
2018,05,14,03,40,10.60
2018,05,14,03,41,10.60
2018,05,14,03,42,10.60
2018,05,14,03,43,10.60
2018,05,14,03,44,10.60
2018,05,14,03,45,10.60
2018,05,14,03,46,10.60
2018,05,14,03,47,10.60
2018,05,14,03,48,10.60
2018,05,14,03,49,10.60
2018,05,14,03,50,10.60
2018,05,14,03,51,10.60
2018,05,14,03,52,10.50
2018,05,14,03,53,10.50
2018,05,14,03,54,10.50
2018,05,14,03,55,10.50
2018,05,14,03,56,10.50
2018,05,14,03,57,10.50
2018,05,14,03,58,10.40
2018,05,14,03,59,10.40
2018,05,14,04,00,10.40
2018,05,14,04,01,10.40
2018,05,14,04,02,10.40
2018,05,14,04,03,10.40
2018,05,14,04,04,10.40
2018,05,14,04,05,10.40
2018,05,14,04,06,10.40
2018,05,14,04,07,10.40
2018,05,14,04,08,10.40
2018,05,14,04,09,10.40
2018,05,14,04,10,10.40
2018,05,14,04,11,10.30
2018,05,14,04,12,10.30
2018,05,14,04,13,10.30
2018,05,14,04,14,10.30
2018,05,14,04,15,10.30
2018,05,14,04,16,10.30
2018,05,14,04,17,10.30
2018,05,14,04,18,10.30
2018,05,14,04,19,10.30
2018,05,14,04,20,10.30
2018,05,14,04,21,10.30
2018,05,14,04,22,10.30
2018,05,14,04,23,10.30
2018,05,14,04,24,10.30
2018,05,14,04,25,10.30
2018,05,14,04,26,10.30
2018,05,14,04,27,10.30
2018,05,14,04,28,10.20
2018,05,14,04,29,10.20
2018,05,14,04,30,10.20
2018,05,14,04,31,10.20
2018,05,14,04,32,10.20
2018,05,14,04,33,10.20
2018,05,14,04,34,10.20
2018,05,14,04,35,10.20
2018,05,14,04,36,10.20
2018,05,14,04,37,10.20
2018,05,14,04,38,10.20
2018,05,14,04,39,10.20
2018,05,14,04,40,10.20
2018,05,14,04,41,10.20
2018,05,14,04,42,10.20
2018,05,14,04,43,10.20
2018,05,14,04,44,10.20
2018,05,14,04,45,10.20
2018,05,14,04,46,10.20
2018,05,14,04,47,10.20
2018,05,14,04,48,10.20
2018,05,14,04,49,10.10
2018,05,14,04,50,10.10
2018,05,14,04,51,10.10
2018,05,14,04,52,10.10
2018,05,14,04,53,10.10
2018,05,14,04,54,10.10
2018,05,14,04,55,10.10
2018,05,14,04,56,10.10
2018,05,14,04,57,10.10
2018,05,14,04,58,10.10
2018,05,14,04,59,10.10
2018,05,14,05,00,10.10
2018,05,14,05,01,10.10
2018,05,14,05,02,10.10
2018,05,14,05,03,10.10
2018,05,14,05,04,10.10
2018,05,14,05,05,10.10
2018,05,14,05,06,10.10
2018,05,14,05,07,10.10
2018,05,14,05,08,10.10
2018,05,14,05,09,10.10
2018,05,14,05,10,10.10
2018,05,14,05,11,10.10
2018,05,14,05,12,10.00
2018,05,14,05,13,10.10
2018,05,14,05,14,10.00
2018,05,14,05,15,10.00
2018,05,14,05,16,10.00
2018,05,14,05,17,10.00
2018,05,14,05,18,9.90
2018,05,14,05,19,9.90
2018,05,14,05,20,9.90
2018,05,14,05,21,9.90
2018,05,14,05,22,9.90
2018,05,14,05,23,9.90
2018,05,14,05,24,9.90
2018,05,14,05,25,9.90
2018,05,14,05,26,9.90
2018,05,14,05,27,9.90
2018,05,14,05,28,9.90
2018,05,14,05,29,9.90
2018,05,14,05,30,9.90
2018,05,14,05,31,9.90
2018,05,14,05,32,9.90
2018,05,14,05,33,9.90
2018,05,14,05,34,9.90
2018,05,14,05,35,9.90
2018,05,14,05,36,9.90
2018,05,14,05,37,9.90
2018,05,14,05,38,9.90
2018,05,14,05,39,9.90
2018,05,14,05,40,9.90
2018,05,14,05,41,9.90
2018,05,14,05,42,9.90
2018,05,14,05,43,9.90
2018,05,14,05,44,9.90
2018,05,14,05,45,9.90
2018,05,14,05,46,9.90
2018,05,14,05,47,9.90
2018,05,14,05,48,9.90
2018,05,14,05,49,9.90
2018,05,14,05,50,9.90
2018,05,14,05,51,9.90
2018,05,14,05,52,9.90
2018,05,14,05,53,9.90
2018,05,14,05,54,9.90
2018,05,14,05,55,9.90
2018,05,14,05,56,9.90
2018,05,14,05,57,9.90
2018,05,14,05,58,9.90
2018,05,14,05,59,9.90
2018,05,14,06,00,9.90
2018,05,14,06,01,9.90
2018,05,14,06,02,9.90
2018,05,14,06,03,9.90
2018,05,14,06,04,9.90
2018,05,14,06,05,9.90
2018,05,14,06,06,9.90
2018,05,14,06,07,9.90
2018,05,14,06,08,9.90
2018,05,14,06,09,9.90
2018,05,14,06,10,9.90
2018,05,14,06,11,9.90
2018,05,14,06,12,9.90
2018,05,14,06,13,9.90
2018,05,14,06,14,9.90
2018,05,14,06,15,9.90
2018,05,14,06,16,9.90
2018,05,14,06,17,9.90
2018,05,14,06,18,10.00
2018,05,14,06,19,10.00
2018,05,14,06,20,10.00
2018,05,14,06,21,10.00
2018,05,14,06,22,10.00
2018,05,14,06,23,10.00
2018,05,14,06,24,10.00
2018,05,14,06,25,10.00
2018,05,14,06,26,10.10
2018,05,14,06,27,10.10
2018,05,14,06,28,10.10
2018,05,14,06,29,10.10
2018,05,14,06,30,10.10
2018,05,14,06,31,10.10
2018,05,14,06,32,10.10
2018,05,14,06,33,10.10
2018,05,14,06,34,10.10
2018,05,14,06,35,10.10
2018,05,14,06,36,10.20
2018,05,14,06,37,10.20
2018,05,14,06,38,10.20
2018,05,14,06,39,10.20
2018,05,14,06,40,10.20
2018,05,14,06,41,10.20
2018,05,14,06,42,10.20
2018,05,14,06,43,10.20
2018,05,14,06,44,10.20
2018,05,14,06,45,10.20
2018,05,14,06,46,10.20
2018,05,14,06,47,10.20
2018,05,14,06,48,10.30
2018,05,14,06,49,10.30
2018,05,14,06,50,10.30
2018,05,14,06,51,10.30
2018,05,14,06,52,10.30
2018,05,14,06,53,10.30
2018,05,14,06,54,10.30
2018,05,14,06,55,10.30
2018,05,14,06,56,10.40
2018,05,14,06,57,10.40
2018,05,14,06,58,10.40
2018,05,14,06,59,10.40
2018,05,14,07,00,10.50
2018,05,14,07,01,10.50
2018,05,14,07,02,10.50
2018,05,14,07,03,10.50
2018,05,14,07,04,10.60
2018,05,14,07,05,10.60
2018,05,14,07,06,10.60
2018,05,14,07,07,10.60
2018,05,14,07,08,10.70
2018,05,14,07,09,10.70
2018,05,14,07,10,10.70
2018,05,14,07,11,10.80
2018,05,14,07,12,10.80
2018,05,14,07,13,10.80
2018,05,14,07,14,10.90
2018,05,14,07,15,10.90
2018,05,14,07,16,10.90
2018,05,14,07,17,11.00
2018,05,14,07,18,11.00
2018,05,14,07,19,11.10
2018,05,14,07,20,11.10
2018,05,14,07,21,11.20
2018,05,14,07,22,11.20
2018,05,14,07,23,11.30
2018,05,14,07,24,11.30
2018,05,14,07,25,11.30
2018,05,14,07,26,11.30
2018,05,14,07,27,11.40
2018,05,14,07,28,11.40
2018,05,14,07,29,11.50
2018,05,14,07,30,11.50
2018,05,14,07,31,11.60
2018,05,14,07,32,11.60
2018,05,14,07,33,11.70
2018,05,14,07,34,11.70
2018,05,14,07,35,11.80
2018,05,14,07,36,11.80
2018,05,14,07,37,11.90
2018,05,14,07,38,11.90
2018,05,14,07,39,12.00
2018,05,14,07,40,12.10
2018,05,14,07,41,12.20
2018,05,14,07,42,12.20
2018,05,14,07,43,12.30
2018,05,14,07,44,12.40
2018,05,14,07,45,12.50
2018,05,14,07,46,12.60
2018,05,14,07,47,12.80
2018,05,14,07,48,12.90
2018,05,14,07,49,13.00
2018,05,14,07,50,13.10
2018,05,14,07,51,13.20
2018,05,14,07,52,13.30
2018,05,14,07,53,13.50
2018,05,14,07,54,13.60
2018,05,14,07,55,13.70
2018,05,14,07,56,13.80
2018,05,14,07,57,14.00
2018,05,14,07,58,14.10
2018,05,14,07,59,14.30
2018,05,14,08,00,14.40
2018,05,14,08,01,14.60
2018,05,14,08,02,14.70
2018,05,14,08,03,14.80
2018,05,14,08,04,15.00
2018,05,14,08,05,15.10
2018,05,14,08,06,15.30
2018,05,14,08,07,15.40
2018,05,14,08,08,15.60
2018,05,14,08,09,15.80
2018,05,14,08,10,16.00
2018,05,14,08,11,16.20
2018,05,14,08,12,16.30
2018,05,14,08,13,16.50
2018,05,14,08,14,16.70
2018,05,14,08,15,16.90
2018,05,14,08,16,17.00
2018,05,14,08,17,17.20
2018,05,14,08,18,17.30
2018,05,14,08,19,17.50
2018,05,14,08,20,17.60
2018,05,14,08,21,17.70
2018,05,14,08,22,17.90
2018,05,14,08,23,18.00
2018,05,14,08,24,18.10
2018,05,14,08,25,18.30
2018,05,14,08,26,18.40
2018,05,14,08,27,18.50
2018,05,14,08,28,18.60
2018,05,14,08,29,18.70
2018,05,14,08,30,18.80
2018,05,14,08,31,18.90
2018,05,14,08,32,19.00
2018,05,14,08,33,19.00
2018,05,14,08,34,19.10
2018,05,14,08,35,19.20
2018,05,14,08,36,19.20
2018,05,14,08,37,19.30
2018,05,14,08,38,19.40
2018,05,14,08,39,19.50
2018,05,14,08,40,19.60
2018,05,14,08,41,19.70
2018,05,14,08,42,19.90
2018,05,14,08,43,20.00
2018,05,14,08,44,20.10
2018,05,14,08,45,20.10
2018,05,14,08,46,20.20
2018,05,14,08,47,20.20
2018,05,14,08,48,20.30
2018,05,14,08,49,20.30
2018,05,14,08,50,20.40
2018,05,14,08,51,20.40
2018,05,14,08,52,20.50
2018,05,14,08,53,20.50
2018,05,14,08,54,20.50
2018,05,14,08,55,20.50
2018,05,14,08,56,20.60
2018,05,14,08,57,20.60
2018,05,14,08,58,20.70
2018,05,14,08,59,20.80
2018,05,14,09,00,20.90
2018,05,14,09,01,20.90
2018,05,14,09,02,21.00
2018,05,14,09,03,21.10
2018,05,14,09,04,21.10
2018,05,14,09,05,21.20
2018,05,14,09,06,21.30
2018,05,14,09,07,21.40
2018,05,14,09,08,21.40
2018,05,14,09,09,21.50
2018,05,14,09,10,21.60
2018,05,14,09,11,21.70
2018,05,14,09,12,21.80
2018,05,14,09,13,21.90
2018,05,14,09,14,22.00
2018,05,14,09,15,22.00
2018,05,14,09,16,22.00
2018,05,14,09,17,22.10
2018,05,14,09,18,22.00
2018,05,14,09,19,22.00
2018,05,14,09,20,22.00
2018,05,14,09,21,22.00
2018,05,14,09,22,22.00
2018,05,14,09,23,22.10
2018,05,14,09,24,22.20
2018,05,14,09,25,22.20
2018,05,14,09,26,22.20
2018,05,14,09,27,22.20
2018,05,14,09,28,22.20
2018,05,14,09,29,22.20
2018,05,14,09,30,22.20
2018,05,14,09,31,22.30
2018,05,14,09,32,22.30
2018,05,14,09,33,22.30
2018,05,14,09,34,22.30
2018,05,14,09,35,22.30
2018,05,14,09,36,22.30
2018,05,14,09,37,22.40
2018,05,14,09,38,22.40
2018,05,14,09,39,22.50
2018,05,14,09,40,22.50
2018,05,14,09,41,22.50
2018,05,14,09,42,22.60
2018,05,14,09,43,22.60
2018,05,14,09,44,22.70
2018,05,14,09,45,22.60
2018,05,14,09,46,22.60
2018,05,14,09,47,22.60
2018,05,14,09,48,22.70
2018,05,14,09,49,22.70
2018,05,14,09,50,22.80
2018,05,14,09,51,22.80
2018,05,14,09,52,22.90
2018,05,14,09,53,22.90
2018,05,14,09,54,23.00
2018,05,14,09,55,22.90
2018,05,14,09,56,22.80
2018,05,14,09,57,22.90
2018,05,14,09,58,22.90
2018,05,14,09,59,22.90
2018,05,14,10,00,23.00
2018,05,14,10,01,23.00
2018,05,14,10,02,23.10
2018,05,14,10,03,23.10
2018,05,14,10,04,23.10
2018,05,14,10,05,23.10
2018,05,14,10,06,23.10
2018,05,14,10,07,23.10
2018,05,14,10,08,23.20
2018,05,14,10,09,23.30
2018,05,14,10,10,23.40
2018,05,14,10,11,23.40
2018,05,14,10,12,23.40
2018,05,14,10,13,23.40
2018,05,14,10,14,23.40
2018,05,14,10,15,23.50
2018,05,14,10,16,23.50
2018,05,14,10,17,23.40
2018,05,14,10,18,23.40
2018,05,14,10,19,23.40
2018,05,14,10,20,23.40
2018,05,14,10,21,23.40
2018,05,14,10,22,23.40
2018,05,14,10,23,23.40
2018,05,14,10,24,23.40
2018,05,14,10,25,23.50
2018,05,14,10,26,23.50
2018,05,14,10,27,23.60
2018,05,14,10,28,23.60
2018,05,14,10,29,23.60
2018,05,14,10,30,23.60
2018,05,14,10,31,23.60
2018,05,14,10,32,23.50
2018,05,14,10,33,23.50
2018,05,14,10,34,23.50
2018,05,14,10,35,23.50
2018,05,14,10,36,23.60
2018,05,14,10,37,23.60
2018,05,14,10,38,23.50
2018,05,14,10,39,23.40
2018,05,14,10,40,23.40
2018,05,14,10,41,23.30
2018,05,14,10,42,23.20
2018,05,14,10,43,23.10
2018,05,14,10,44,23.10
2018,05,14,10,45,23.20
2018,05,14,10,46,23.20
2018,05,14,10,47,23.30
2018,05,14,10,48,23.40
2018,05,14,10,49,23.40
2018,05,14,10,50,23.50
2018,05,14,10,51,23.40
2018,05,14,10,52,23.40
2018,05,14,10,53,23.40
2018,05,14,10,54,23.30
2018,05,14,10,55,23.40
2018,05,14,10,56,23.40
2018,05,14,10,57,23.40
2018,05,14,10,58,23.40
2018,05,14,10,59,23.40
2018,05,14,11,00,23.40
2018,05,14,11,01,23.40
2018,05,14,11,02,23.50
2018,05,14,11,03,23.50
2018,05,14,11,04,23.60
2018,05,14,11,05,23.60
2018,05,14,11,06,23.60
2018,05,14,11,07,23.70
2018,05,14,11,08,23.70
2018,05,14,11,09,23.70
2018,05,14,11,10,23.70
2018,05,14,11,11,23.60
2018,05,14,11,12,23.60
2018,05,14,11,13,23.60
2018,05,14,11,14,23.60
2018,05,14,11,15,23.70
2018,05,14,11,16,23.70
2018,05,14,11,17,23.60
2018,05,14,11,18,23.60
2018,05,14,11,19,23.60
2018,05,14,11,20,23.60
2018,05,14,11,21,23.70
2018,05,14,11,22,23.70
2018,05,14,11,23,23.80
2018,05,14,11,24,23.90
2018,05,14,11,25,24.00
2018,05,14,11,26,24.10
2018,05,14,11,27,24.20
2018,05,14,11,28,24.10
2018,05,14,11,29,24.10
2018,05,14,11,30,24.10
2018,05,14,11,31,24.10
2018,05,14,11,32,24.10
2018,05,14,11,33,24.10
2018,05,14,11,34,24.10
2018,05,14,11,35,24.10
2018,05,14,11,36,24.20
2018,05,14,11,37,24.20
2018,05,14,11,38,24.30
2018,05,14,11,39,24.30
2018,05,14,11,40,24.30
2018,05,14,11,41,24.30
2018,05,14,11,42,24.40
2018,05,14,11,43,24.40
2018,05,14,11,44,24.50
2018,05,14,11,45,24.50
2018,05,14,11,46,24.60
2018,05,14,11,47,24.70
2018,05,14,11,48,24.70
2018,05,14,11,49,24.70
2018,05,14,11,50,24.70
2018,05,14,11,51,24.80
2018,05,14,11,52,24.80
2018,05,14,11,53,24.90
2018,05,14,11,54,25.00
2018,05,14,11,55,25.10
2018,05,14,11,56,25.20
2018,05,14,11,57,25.20
2018,05,14,11,58,25.20
2018,05,14,11,59,25.20
2018,05,14,12,00,25.20
2018,05,14,12,01,25.20
2018,05,14,12,02,25.20
2018,05,14,12,03,25.20
2018,05,14,12,04,25.20
2018,05,14,12,05,25.20
2018,05,14,12,06,25.20
2018,05,14,12,07,25.20
2018,05,14,12,08,25.30
2018,05,14,12,09,25.30
2018,05,14,12,10,25.20
2018,05,14,12,11,25.10
2018,05,14,12,12,24.90
2018,05,14,12,13,24.80
2018,05,14,12,14,24.80
2018,05,14,12,15,24.80
2018,05,14,12,16,24.90
2018,05,14,12,17,24.90
2018,05,14,12,18,25.00
2018,05,14,12,19,25.10
2018,05,14,12,20,25.10
2018,05,14,12,21,25.20
2018,05,14,12,22,25.20
2018,05,14,12,23,25.30
2018,05,14,12,24,25.30
2018,05,14,12,25,25.30
2018,05,14,12,26,25.30
2018,05,14,12,27,25.20
2018,05,14,12,28,25.20
2018,05,14,12,29,25.20
2018,05,14,12,30,25.20
2018,05,14,12,31,25.20
2018,05,14,12,32,25.20
2018,05,14,12,33,25.10
2018,05,14,12,34,25.00
2018,05,14,12,35,25.00
2018,05,14,12,36,24.90
2018,05,14,12,37,24.90
2018,05,14,12,38,24.90
2018,05,14,12,39,24.90
2018,05,14,12,40,24.90
2018,05,14,12,41,24.90
2018,05,14,12,42,25.00
2018,05,14,12,43,25.10
2018,05,14,12,44,25.10
2018,05,14,12,45,25.10
2018,05,14,12,46,25.10
2018,05,14,12,47,25.10
2018,05,14,12,48,25.10
2018,05,14,12,49,25.20
2018,05,14,12,50,25.20
2018,05,14,12,51,25.20
2018,05,14,12,52,25.30
2018,05,14,12,53,25.40
2018,05,14,12,54,25.40
2018,05,14,12,55,25.50
2018,05,14,12,56,25.40
2018,05,14,12,57,25.40
2018,05,14,12,58,25.40
2018,05,14,12,59,25.50
2018,05,14,13,00,25.50
2018,05,14,13,01,25.60
2018,05,14,13,02,25.70
2018,05,14,13,03,25.80
2018,05,14,13,04,26.00
2018,05,14,13,05,26.10
2018,05,14,13,06,26.20
2018,05,14,13,07,26.30
2018,05,14,13,08,26.30
2018,05,14,13,09,26.30
2018,05,14,13,10,26.30
2018,05,14,13,11,26.30
2018,05,14,13,12,26.30
2018,05,14,13,13,26.30
2018,05,14,13,14,26.30
2018,05,14,13,15,26.30
2018,05,14,13,16,26.30
2018,05,14,13,17,26.40
2018,05,14,13,18,26.40
2018,05,14,13,19,26.40
2018,05,14,13,20,26.30
2018,05,14,13,21,26.20
2018,05,14,13,22,26.10
2018,05,14,13,23,26.00
2018,05,14,13,24,25.90
2018,05,14,13,25,25.80
2018,05,14,13,26,25.70
2018,05,14,13,27,25.70
2018,05,14,13,28,25.70
2018,05,14,13,29,25.80
2018,05,14,13,30,25.80
2018,05,14,13,31,25.90
2018,05,14,13,32,26.00
2018,05,14,13,33,26.00
2018,05,14,13,34,26.20
2018,05,14,13,35,26.30
2018,05,14,13,36,26.40
2018,05,14,13,37,26.40
2018,05,14,13,38,26.50
2018,05,14,13,39,26.60
2018,05,14,13,40,26.50
2018,05,14,13,41,26.50
2018,05,14,13,42,26.40
2018,05,14,13,43,26.30
2018,05,14,13,44,26.20
2018,05,14,13,45,26.20
2018,05,14,13,46,26.20
2018,05,14,13,47,26.20
2018,05,14,13,48,26.30
2018,05,14,13,49,26.30
2018,05,14,13,50,26.40
2018,05,14,13,51,26.40
2018,05,14,13,52,26.50
2018,05,14,13,53,26.50
2018,05,14,13,54,26.50
2018,05,14,13,55,26.50
2018,05,14,13,56,26.50
2018,05,14,13,57,26.40
2018,05,14,13,58,26.40
2018,05,14,13,59,26.30
2018,05,14,14,00,26.30
2018,05,14,14,01,26.40
2018,05,14,14,02,26.50
2018,05,14,14,03,26.50
2018,05,14,14,04,26.60
2018,05,14,14,05,26.60
2018,05,14,14,06,26.60
2018,05,14,14,07,26.60
2018,05,14,14,08,26.60
2018,05,14,14,09,26.60
2018,05,14,14,10,26.60
2018,05,14,14,11,26.50
2018,05,14,14,12,26.40
2018,05,14,14,13,26.40
2018,05,14,14,14,26.30
2018,05,14,14,15,26.30
2018,05,14,14,16,26.30
2018,05,14,14,17,26.20
2018,05,14,14,18,26.10
2018,05,14,14,19,26.00
2018,05,14,14,20,26.00
2018,05,14,14,21,26.10
2018,05,14,14,22,26.10
2018,05,14,14,23,26.10
2018,05,14,14,24,26.20
2018,05,14,14,25,26.20
2018,05,14,14,26,26.20
2018,05,14,14,27,26.20
2018,05,14,14,28,26.20
2018,05,14,14,29,26.20
2018,05,14,14,30,26.30
2018,05,14,14,31,26.30
2018,05,14,14,32,26.30
2018,05,14,14,33,26.30
2018,05,14,14,34,26.30
2018,05,14,14,35,26.30
2018,05,14,14,36,26.50
2018,05,14,14,37,26.60
2018,05,14,14,38,26.60
2018,05,14,14,39,26.70
2018,05,14,14,40,26.70
2018,05,14,14,41,26.80
2018,05,14,14,42,26.80
2018,05,14,14,43,26.80
2018,05,14,14,44,26.70
2018,05,14,14,45,26.70
2018,05,14,14,46,26.70
2018,05,14,14,47,26.70
2018,05,14,14,48,26.70
2018,05,14,14,49,26.80
2018,05,14,14,50,26.80
2018,05,14,14,51,26.90
2018,05,14,14,52,26.90
2018,05,14,14,53,27.00
2018,05,14,14,54,27.00
2018,05,14,14,55,27.00
2018,05,14,14,56,26.90
2018,05,14,14,57,26.90
2018,05,14,14,58,26.90
2018,05,14,14,59,26.90
2018,05,14,15,00,26.90
2018,05,14,15,01,27.00
2018,05,14,15,02,27.10
2018,05,14,15,03,27.10
2018,05,14,15,04,27.10
2018,05,14,15,05,27.10
2018,05,14,15,06,27.10
2018,05,14,15,07,27.00
2018,05,14,15,08,27.10
2018,05,14,15,09,27.10
2018,05,14,15,10,27.10
2018,05,14,15,11,27.10
2018,05,14,15,12,27.00
2018,05,14,15,13,27.00
2018,05,14,15,14,27.00
2018,05,14,15,15,27.00
2018,05,14,15,16,27.00
2018,05,14,15,17,27.10
2018,05,14,15,18,27.20
2018,05,14,15,19,27.30
2018,05,14,15,20,27.30
2018,05,14,15,21,27.40
2018,05,14,15,22,27.40
2018,05,14,15,23,27.40
2018,05,14,15,24,27.50
2018,05,14,15,25,27.60
2018,05,14,15,26,27.60
2018,05,14,15,27,27.60
2018,05,14,15,28,27.60
2018,05,14,15,29,27.50
2018,05,14,15,30,27.50
2018,05,14,15,31,27.50
2018,05,14,15,32,27.40
2018,05,14,15,33,27.40
2018,05,14,15,34,27.30
2018,05,14,15,35,27.30
2018,05,14,15,36,27.30
2018,05,14,15,37,27.30
2018,05,14,15,38,27.40
2018,05,14,15,39,27.50
2018,05,14,15,40,27.50
2018,05,14,15,41,27.50
2018,05,14,15,42,27.50
2018,05,14,15,43,27.50
2018,05,14,15,44,27.50
2018,05,14,15,45,27.60
2018,05,14,15,46,27.60
2018,05,14,15,47,27.50
2018,05,14,15,48,27.50
2018,05,14,15,49,27.50
2018,05,14,15,50,27.40
2018,05,14,15,51,27.40
2018,05,14,15,52,27.40
2018,05,14,15,53,27.30
2018,05,14,15,54,27.40
2018,05,14,15,55,27.40
2018,05,14,15,56,27.40
2018,05,14,15,57,27.30
2018,05,14,15,58,27.30
2018,05,14,15,59,27.20
2018,05,14,16,00,27.20
2018,05,14,16,01,27.20
2018,05,14,16,02,27.10
2018,05,14,16,03,27.00
2018,05,14,16,04,27.00
2018,05,14,16,05,27.00
2018,05,14,16,06,27.10
2018,05,14,16,07,27.20
2018,05,14,16,08,27.20
2018,05,14,16,09,27.20
2018,05,14,16,10,27.20
2018,05,14,16,11,27.20
2018,05,14,16,12,27.20
2018,05,14,16,13,27.20
2018,05,14,16,14,27.20
2018,05,14,16,15,27.20
2018,05,14,16,16,27.10
2018,05,14,16,17,27.00
2018,05,14,16,18,26.90
2018,05,14,16,19,26.80
2018,05,14,16,20,26.80
2018,05,14,16,21,26.80
2018,05,14,16,22,26.90
2018,05,14,16,23,26.90
2018,05,14,16,24,26.90
2018,05,14,16,25,26.90
2018,05,14,16,26,27.00
2018,05,14,16,27,27.00
2018,05,14,16,28,27.10
2018,05,14,16,29,27.10
2018,05,14,16,30,27.10
2018,05,14,16,31,27.10
2018,05,14,16,32,27.00
2018,05,14,16,33,27.00
2018,05,14,16,34,27.00
2018,05,14,16,35,26.90
2018,05,14,16,36,26.90
2018,05,14,16,37,27.00
2018,05,14,16,38,27.00
2018,05,14,16,39,27.10
2018,05,14,16,40,27.10
2018,05,14,16,41,27.20
2018,05,14,16,42,27.20
2018,05,14,16,43,27.20
2018,05,14,16,44,27.00
2018,05,14,16,45,26.90
2018,05,14,16,46,26.80
2018,05,14,16,47,26.70
2018,05,14,16,48,26.60
2018,05,14,16,49,26.60
2018,05,14,16,50,26.50
2018,05,14,16,51,26.60
2018,05,14,16,52,26.60
2018,05,14,16,53,26.60
2018,05,14,16,54,26.70
2018,05,14,16,55,26.70
2018,05,14,16,56,26.80
2018,05,14,16,57,26.80
2018,05,14,16,58,26.80
2018,05,14,16,59,26.80
2018,05,14,17,00,26.80
2018,05,14,17,01,26.80
2018,05,14,17,02,26.80
2018,05,14,17,03,26.80
2018,05,14,17,04,26.80
2018,05,14,17,05,26.80
2018,05,14,17,06,26.80
2018,05,14,17,07,26.80
2018,05,14,17,08,26.80
2018,05,14,17,09,26.80
2018,05,14,17,10,26.80
2018,05,14,17,11,26.80
2018,05,14,17,12,26.80
2018,05,14,17,13,26.80
2018,05,14,17,14,26.80
2018,05,14,17,15,26.80
2018,05,14,17,16,26.90
2018,05,14,17,17,26.90
2018,05,14,17,18,27.00
2018,05,14,17,19,27.00
2018,05,14,17,20,27.00
2018,05,14,17,21,27.00
2018,05,14,17,22,27.00